Location: Dompnac
(44.5644°N, 4.1026°E)
Time: 10:41:28
(UTC+00:00)

Meteor 1-24 Rocket - Pass Details

Date: 19 September 2020
Orbit: 790 x 927 km, 81.2° (Epoch: 29 October)

Event Time Altitude Azimuth Distance (km) Brightness Sun altitude
Rises 20:39:39 0° 346° (NNW) 3,358 7.5 -29.8°
Reaches altitude 10° 20:42:02 10° 343° (NNW) 2,438 6.7 -30.1°
Enters shadow 20:47:17 62° 276° (W) 950 4.0 -30.9°
